Hourly Data Report for January 09, 2022

BANCROFT AUTO
ONTARIO
Current Station Operator: ECCC - MSC

45°04'17.000" N
77°52'44.000" W
330.70 m
616I001
71294
WRK

Download Data

Hourly Data (January 2022)
Hourly Data Report for January 9, 2022
TIME
LST
Temp Definition
°C
Dew Point Definition
°C
Rel Hum Definition
%
Precip. Amount Definition
mm

Wind Dir Definition
10's deg

Wind Spd Definition
km/h
Visibility Definition
km
Stn Press Definition
kPa
Hmdx Definition


Wind Chill Definition


Weather Definition


00:00 -6.5 -8.4 86 0.0 18 6   97.78   -9 LegendNANA
01:00 -5.8 -7.7 86 0.0 16 4   97.64   -8 LegendNANA
02:00 -4.6 -5.8 91 0.1 17 6   97.53   -7 LegendNANA
03:00 -3.9 -4.9 93 0.1 19 8   97.41   -7 LegendNANA
04:00 -3.4 -4.2 94 0.1 19 7   97.25   -6 LegendNANA
05:00 -2.8 -3.5 95 0.1 20 6   97.11   -5 LegendNANA
06:00 -1.8 -2.1 98 0.1 19 6   96.97   -4 LegendNANA
07:00 -0.6 -0.9 97 0.4 21 8   96.88   -3 LegendNANA
08:00 -0.1 -0.4 98 0.5 20 7   96.79   -3 LegendNANA
09:00 0.3 -0.2 96 0.3 21 9   96.72     LegendNANA
10:00 0.6 -0.2 94 0.2 21 9   96.68     LegendNANA
11:00 0.8 0.0 94 0.2 22 9   96.64     LegendNANA
12:00 1.2 -0.3 89 0.3 23 12   96.54     LegendNANA
13:00 0.4 -1.0 90 2.0 24 7   96.58     LegendNANA
14:00 -0.5 -3.4 80 0.0 26 10   96.64   -4 LegendNANA
15:00 -0.8 -4.6 76 0.0 25 11   96.66   -5 LegendNANA
16:00 -1.8 -4.4 83 0.0 29 10   96.80   -5 LegendNANA
17:00 -3.7 -7.3 76 0.0 28 13   96.96   -9 LegendNANA
18:00 -5.2 -10.1 68 0.0 28 17   97.11   -11 LegendNANA
19:00 -6.7 -12.0 66 0.0 28 13   97.27   -12 LegendNANA
20:00 -7.7 -12.1 70 0.0 29 18   97.39   -15 LegendNANA
21:00 -9.1 -15.4 60 0.0 29 17   97.48   -16 LegendNANA
22:00 -9.8 -16.0 60 0.0 29 11   97.53   -15 LegendNANA
23:00 -10.7 -16.8 61 0.0 29 11   97.59   -16 LegendNANA

Notes on Data Quality.

Legend

  • E = Estimated
  • M = Missing
  • NA = Not Available*
  • [empty] = Indicates an unobserved value
Date modified: